Wind_Speed
25 24 24 25 25 27 28 28 29 30 31 32 35 38 40 39 36 35 38 37 32 28 27 29 28 29 31 33 35 36 37 37 38 40 41 43 43 43 44 44 44 45 45 45 45 45 45 46 46 47 47 47 47 48 48 48 49 50 51 51 51 52 52 53 54 55 56 57 58 59 59 59 60 60 61 61 62 62 62 63 63 64 64 65 65 66 67 68
24 23 24 24 25 26 27 28 29 30 31 32 34 37 39 42 42 41 41 36 30 26 26 27 26 26 31 35 34 32 33 34 35 37 39 41 42 42 43 44 44 45 46 46 46 46 46 47 48 48 49 50 51 51 51 51 52 53 53 54 54 54 55 56 57 58 59 60 61 61 62 62 63 64 64 65 65 66 66 67 67 68 68 69 69 70 71 71
23 23 24 25 25 26 26 27 28 30 31 32 34 37 39 41 43 44 45 42 38 33 30 29 29 28 34 41 38 35 36 37 37 37 38 40 41 42 43 44 45 46 46 47 48 48 48 48 49 50 51 52 53 53 53 54 55 56 56 57 57 58 58 59 61 62 62 63 64 65 65 65 66 67 67 68 68 69 69 70 71 71 72 72 73 74 74 75
22 23 24 25 25 25 25 26 28 29 31 32 35 37 39 40 41 44 46 48 47 43 38 36 37 37 39 43 43 42 43 45 44 42 41 42 43 44 45 46 47 47 48 48 49 50 50 51 51 52 53 54 55 55 56 57 59 60 60 61 62 62 63 64 64 65 66 67 68 69 69 69 70 70 70 71 71 71 72 73 73 74 75 76 77 77 78 79
22 23 24 24 24 24 24 25 27 29 30 32 35 38 39 40 40 41 44 46 46 44 42 41 42 44 45 46 46 46 45 46 48 47 46 46 47 47 48 48 49 49 50 51 52 53 54 54 55 56 56 57 57 57 58 59 61 62 62 64 65 66 66 67 67 68 69 70 71 72 73 73 74 74 74 74 74 75 75 76 76 77 78 79 80 81 82 82
23 23 24 24 23 23 24 24 26 28 30 32 35 39 40 39 36 36 40 43 44 44 45 47 48 49 50 50 50 50 48 48 51 53 52 51 51 52 52 53 53 54 55 56 56 57 57 58 58 59 59 60 60 60 60 61 62 63 64 65 66 67 68 69 70 70 71 72 72 73 74 75 76 76 77 78 78 79 79 79 80 80 81 82 83 84 85 86
23 23 23 23 23 23 23 24 25 27 29 31 35 40 42 41 35 33 36 38 39 41 43 46 48 49 51 52 51 51 51 51 53 55 55 54 54 55 55 55 56 57 57 57 58 59 59 60 60 61 61 61 62 62 62 62 63 63 64 66 66 67 68 69 70 71 72 72 73 73 74 74 75 76 77 79 80 81 82 83 84 84 85 85 86 87 87 89
23 23 22 22 22 22 23 23 24 25 27 30 34 40 44 44 40 37 36 35 35 36 38 40 42 43 44 46 47 48 49 50 50 51 52 52 52 53 52 52 53 53 54 54 55 56 57 57 58 58 59 61 62 63 63 62 63 64 65 66 66 67 68 69 70 71 72 72 73 73 74 74 75 75 76 78 79 81 82 84 85 86 86 87 88 89 90 91
22 21 21 21 21 21 22 22 23 25 26 28 32 38 43 46 46 43 41 39 37 36 36 37 38 39 41 42 44 45 47 48 48 48 49 49 50 52 53 54 55 56 56 56 56 56 56 56 56 57 58 60 62 62 62 63 63 65 66 67 68 68 69 71 72 73 74 74 75 76 76 77 78 78 79 79 80 81 82 82 83 84 85 87 88 89 90 91
21 20 19 20 20 20 21 21 22 23 25 26 29 34 39 45 48 48 47 44 43 42 40 39 39 39 40 41 43 44 45 45 45 45 45 46 47 50 52 54 56 57 58 58 57 57 57 57 57 58 59 60 62 63 63 64 65 66 67 68 70 71 73 74 75 76 77 78 79 80 81 82 82 83 84 85 86 86 86 86 87 87 88 89 90 91 92 93
19 18 18 19 19 19 19 20 21 22 23 25 26 29 33 40 46 51 51 50 49 48 47 46 45 44 44 45 45 46 47 48 48 49 49 51 51 52 53 54 55 56 57 57 58 58 58 59 59 60 61 62 64 65 67 68 69 70 71 73 74 76 77 79 80 81 82 83 84 85 86 86 87 88 89 90 91 91 92 93 93 94 95 96 97 98 99 99
18 17 18 18 17 17 18 18 19 20 21 23 24 26 29 32 38 45 50 53 54 54 53 52 52 52 51 51 51 52 53 54 54 55 56 57 59 60 61 62 63 63 64 64 65 66 67 67 68 69 70 71 73 74 76 77 77 78 79 81 82 84 86 87 88 88 90 90 91 92 92 93 94 95 95 96 96 97 98 99 100 101 102 103 104 105 106 106
17 17 17 16 15 15 16 17 17 18 20 21 23 24 26 29 32 36 42 47 52 55 57 58 58 58 57 57 58 58 59 60 60 61 62 63 64 65 66 67 69 70 70 71 72 73 74 74 75 76 77 78 79 80 82 83 84 85 87 88 89 91 91 92 93 94 95 96 97 98 99 99 100 101 102 103 103 104 105 106 106 107 108 109 110 110 111 112
16 16 15 14 14 14 15 16 17 18 20 21 22 24 26 28 30 32 35 39 43 47 51 55 58 60 62 62 63 63 63 64 65 66 67 68 69 70 71 72 73 74 75 75 76 77 78 79 79 80 81 82 83 84 85 86 88 90 91 92 93 94 94 95 96 96 97 98 99 99 99 100 101 102 102 102 103 103 104 105 105 106 106 107 108 108 109 110
16 15 14 14 13 13 14 16 18 19 20 21 23 24 25 27 29 31 33 35 38 40 43 47 50 54 57 60 62 64 66 67 67 68 70 70 71 73 74 75 76 77 78 79 80 81 81 82 82 83 84 85 86 87 88 89 90 91 92 92 92 92 91 92 92 92 92 92 93 93 93 93 93 94 94 94 94 95 95 95 96 96 97 98 99 99 100 101
15 15 14 13 12 13 14 16 18 19 20 21 22 23 24 26 27 29 31 33 35 37 39 41 44 46 49 52 55 57 60 62 64 65 67 68 69 70 71 72 73 74 76 77 78 78 79 80 80 81 82 83 84 84 84 85 85 86 86 85 85 85 85 85 85 85 85 85 85 85 85 85 85 85 86 86 86 86 86 87 87 88 89 90 90 91 92 93
15 14 13 12 12 14 15 17 18 19 19 20 21 23 24 25 26 27 28 30 31 33 35 36 38 41 43 45 47 49 52 54 56 57 59 61 62 63 65 66 67 68 70 71 72 73 74 74 75 75 76 76 77 78 78 78 78 79 79 79 79 79 79 79 78 78 78 78 78 78 77 78 78 79 79 79 79 80 80 81 82 82 83 84 85 86 87 88
14 13 12 12 14 15 17 18 18 19 20 21 22 23 24 24 25 26 26 27 29 30 31 33 34 36 38 40 42 44 46 48 50 52 53 55 57 58 60 62 63 64 65 67 68 68 69 70 70 71 71 72 72 73 73 73 73 73 73 72 72 71 71 71 71 71 72 72 72 72 72 72 73 74 74 75 75 76 77 78 79 79 81 82 83 83 84 85
13 13 12 13 15 17 18 19 20 21 22 22 22 23 23 23 23 24 25 26 27 28 29 31 33 34 36 38 40 42 44 46 48 49 51 53 54 56 58 60 61 62 64 65 66 67 67 68 68 67 67 67 66 66 66 65 65 64 65 64 64 64 65 65 66 66 67 67 68 68 69 69 70 71 72 72 73 74 75 76 77 78 79 80 81 82 83 84
14 13 13 15 17 19 19 20 21 22 22 22 21 21 21 22 22 23 24 25 27 28 30 32 34 35 37 39 41 43 44 46 48 49 51 53 54 56 57 59 60 62 62 63 63 63 63 62 62 61 59 59 58 58 58 58 58 58 59 59 60 60 61 62 63 64 65 66 66 67 67 69 70 70 71 72 72 73 75 76 77 78 79 80 81 81 82 83
14 13 15 16 18 19 20 21 22 22 21 20 20 20 21 22 23 24 25 27 28 30 32 34 35 37 39 41 43 44 46 47 49 50 52 53 54 55 56 56 57 57 57 56 56 55 55 54 54 53 53 53 52 53 53 54 54 55 56 57 58 59 60 61 62 63 64 65 66 66 67 68 70 70 71 72 73 74 75 76 77 78 78 79 80 81 82 83
14 15 16 17 18 19 20 20 20 20 19 19 20 21 22 23 24 26 28 30 32 33 35 37 38 39 41 42 44 45 47 49 49 50 51 51 50 50 49 49 49 49 49 49 49 48 48 49 49 49 49 49 50 50 51 52 53 54 55 56 57 58 59 60 61 62 64 65 66 67 67 68 69 70 71 71 73 74 74 75 77 77 78 79 80 81 82 83
14 15 16 17 18 19 19 19 19 18 18 19 20 22 23 25 27 29 31 33 35 36 37 39 40 41 43 44 45 46 47 48 47 46 45 44 43 43 43 43 43 43 44 44 44 44 44 45 45 46 47 48 48 49 50 51 52 53 54 55 56 58 59 60 62 63 64 64 65 66 67 68 68 69 70 72 73 74 75 76 77 78 79 80 82 83 84 85
14 15 16 17 18 18 18 18 18 18 19 20 22 23 25 27 29 32 34 35 37 38 39 40 41 43 44 45 47 46 45 43 42 41 40 40 40 40 40 39 39 40 40 40 40 41 42 43 44 45 46 47 48 49 50 51 52 53 55 56 57 58 59 60 61 62 63 64 65 66 67 69 70 71 73 75 76 77 77 79 80 81 82 83 84 84 85 85
14 15 16 17 17 18 18 17 18 19 20 22 23 26 28 30 33 34 36 37 39 40 41 42 43 44 45 45 45 42 40 39 38 38 38 38 37 37 37 37 37 37 38 39 40 40 41 42 43 44 45 46 47 49 50 51 53 54 56 57 58 59 59 60 61 63 64 66 67 68 70 72 74 74 76 78 79 79 80 81 81 81 82 82 82 82 81 81
14 15 16 17 17 17 17 18 19 20 21 23 26 28 31 33 35 37 38 39 40 41 42 43 44 45 44 42 40 38 37 36 36 36 36 35 35 34 34 35 36 37 37 38 39 40 40 41 42 43 45 47 48 50 51 52 53 54 56 57 58 59 60 62 63 65 67 69 70 71 72 74 75 75 75 77 77 77 77 77 77 76 76 76 75 75 74 73
14 15 16 17 17 17 17 19 20 21 23 26 28 31 34 36 37 38 39 40 41 42 43 44 44 43 40 37 36 35 35 35 34 34 33 33 33 33 33 34 35 36 37 37 38 39 40 41 43 45 47 48 50 51 52 53 53 55 56 57 59 61 63 64 66 67 68 69 70 70 70 70 72 72 70 71 71 71 71 70 69 68 68 68 68 68 68 67
14 15 16 16 16 17 18 20 21 23 25 28 31 34 36 37 38 39 40 41 42 43 43 43 42 39 36 34 34 34 33 33 32 32 32 31 32 33 33 34 35 35 36 37 38 39 41 43 45 46 48 49 50 51 52 53 54 56 58 60 62 63 64 65 65 65 65 66 66 66 65 63 65 66 64 64 65 65 65 65 64 63 63 63 63 63 64 64
14 15 15 16 16 18 19 21 23 25 28 31 34 36 37 38 39 40 40 41 42 43 43 41 37 34 33 33 33 32 31 30 30 30 30 31 32 32 33 34 34 35 36 37 38 40 42 44 45 47 48 49 50 51 53 54 56 58 59 60 61 61 61 61 61 61 60 61 60 60 59 57 59 61 59 59 61 61 61 62 61 61 60 60 61 61 62 63
14 15 15 16 18 19 21 22 25 27 30 33 35 37 38 39 40 40 40 41 42 43 41 37 34 33 33 32 31 31 30 29 29 29 30 31 32 32 33 33 34 35 36 37 39 41 43 45 46 47 48 49 51 52 54 56 57 58 57 57 57 57 57 57 56 56 56 56 56 55 55 54 55 58 57 57 58 58 59 60 60 60 60 60 61 62 63 64
14 15 16 18 20 21 23 24 27 30 33 35 37 38 39 40 40 40 41 41 42 41 38 34 33 33 33 32 31 30 29 29 29 30 30 31 32 32 33 33 34 35 37 39 41 43 44 46 47 48 50 51 52 53 54 54 54 54 54 53 53 53 53 53 53 53 53 52 53 53 53 53 54 55 55 55 55 55 57 58 59 59 59 60 61 63 64 65
14 15 17 19 21 23 25 27 30 33 35 37 39 40 40 40 40 40 41 42 41 38 35 33 33 33 32 31 30 29 29 30 30 30 31 32 32 32 33 34 35 36 38 40 42 44 46 47 49 50 51 52 52 52 51 51 51 51 51 50 50 50 50 50 50 50 51 50 50 50 50 50 52 53 53 52 52 53 54 55 56 58 59 60 62 63 65 66
14 16 18 21 22 24 27 29 32 35 37 39 40 40 40 40 40 41 42 42 39 35 33 33 32 31 30 29 29 29 29 30 30 31 31 32 32 33 33 34 35 37 39 41 43 45 47 48 49 50 50 49 49 49 49 49 48 48 48 48 48 48 47 47 48 48 48 48 49 50 49 49 50 51 51 50 50 52 53 53 55 57 58 60 62 63 64 65
15 17 20 22 23 26 28 31 34 37 38 39 40 40 40 40 41 41 42 40 37 33 33 32 31 30 29 29 29 29 29 30 31 31 32 32 32 33 33 34 36 38 40 43 45 46 47 47 48 48 47 47 47 46 46 46 46 45 45 45 45 45 45 44 45 46 46 48 50 51 51 50 50 50 49 48 49 52 53 53 54 55 57 59 62 63 63 64
16 18 20 22 25 27 31 34 36 38 39 40 40 40 40 41 41 42 41 38 34 32 32 31 30 29 28 28 28 29 29 30 31 32 32 32 32 32 33 35 37 40 42 44 45 46 46 45 45 45 44 44 43 43 43 43 43 42 43 43 43 43 43 43 44 44 44 45 48 50 51 52 50 48 48 46 47 50 51 52 52 52 54 56 58 60 61 61
17 19 21 24 26 30 33 35 37 39 39 40 40 40 40 41 42 42 39 35 32 31 31 30 29 28 28 28 28 28 29 30 31 31 31 32 32 33 34 36 39 41 42 43 43 43 42 42 42 41 41 41 41 41 41 41 41 41 41 42 42 43 44 43 43 44 44 44 46 49 50 50 49 47 47 45 45 46 48 49 50 50 50 51 54 56 57 58
18 21 23 26 29 32 35 36 38 39 39 39 39 40 41 41 41 40 36 32 31 31 30 29 28 28 28 28 28 28 29 30 31 31 31 31 32 33 35 37 39 40 41 41 40 40 40 40 40 40 40 41 41 41 41 41 41 41 41 41 41 42 43 43 43 43 43 41 44 49 50 48 46 45 43 42 40 40 42 45 47 49 49 49 52 54 56 57
20 22 25 28 31 34 36 37 39 39 39 39 40 40 41 42 41 38 33 31 31 30 29 29 28 27 27 28 28 29 30 31 31 31 31 31 32 34 35 37 38 39 39 39 39 40 40 41 41 42 42 41 41 40 40 40 39 39 39 39 39 39 39 40 40 40 41 39 40 49 54 50 47 45 44 43 40 38 39 41 44 46 48 48 50 54 57 59
21 24 27 30 33 35 37 38 39 39 39 39 40 41 42 42 39 35 32 31 31 30 29 28 28 27 27 27 28 29 30 30 31 31 31 31 32 34 35 36 37 37 38 39 39 40 41 41 41 41 41 40 40 39 39 38 37 36 36 37 38 38 38 39 39 39 42 41 40 47 56 58 53 51 50 51 49 46 45 45 46 47 47 48 50 53 58 61
23 26 29 32 34 36 37 39 39 39 39 40 41 41 41 40 37 33 31 31 30 29 29 28 27 27 27 27 28 29 30 30 30 30 30 31 32 34 35 36 36 37 38 39 40 40 40 40 39 38 38 38 38 38 38 38 38 37 36 37 38 40 39 40 42 42 45 45 43 44 52 61 62 59 58 58 59 58 57 56 56 55 54 53 54 56 59 62
25 28 31 33 35 37 38 39 39 39 40 40 41 41 41 39 34 31 31 31 30 29 28 28 27 27 27 27 28 29 30 30 30 30 30 32 33 34 35 36 36 37 38 38 39 39 39 38 38 37 37 37 37 38 37 38 38 38 39 40 42 44 43 43 44 46 48 49 48 45 46 56 64 63 62 62 63 65 65 64 64 64 63 62 61 62 63 65
27 30 33 34 36 38 38 39 39 39 40 40 41 41 40 36 32 31 31 30 30 29 28 28 27 27 27 28 28 29 29 29 29 30 31 32 33 34 35 35 36 37 38 38 38 38 38 38 38 38 38 38 38 39 39 39 39 39 40 42 45 47 48 48 47 48 50 52 52 48 46 50 61 64 63 63 64 66 68 68 68 68 69 68 67 67 68 69
29 31 33 35 37 38 38 39 39 39 40 40 41 41 39 34 31 31 31 31 30 29 29 28 27 27 27 28 29 29 29 29 29 30 31 32 33 34 34 35 35 36 37 38 38 38 38 38 39 40 40 41 41 42 42 42 43 42 42 43 47 48 50 52 52 51 51 54 55 53 50 50 59 64 65 64 65 67 68 69 69 70 71 71 70 70 71 72
30 32 34 36 37 38 38 39 39 40 40 41 42 41 38 33 31 31 31 31 30 30 29 28 28 28 28 28 29 30 30 30 30 30 31 32 33 33 34 34 35 36 37 38 38 39 38 39 40 40 40 42 44 45 46 47 47 47 47 47 49 52 52 53 55 54 52 54 57 57 55 54 60 66 68 67 67 68 69 70 71 72 73 73 73 72 73 75
31 33 35 36 37 37 38 39 39 40 41 42 42 41 37 33 31 31 32 31 31 30 29 29 28 28 28 29 30 30 30 30 30 30 31 32 32 33 34 35 35 36 37 37 39 40 40 40 41 42 40 41 43 45 47 48 50 50 50 51 52 54 55 56 57 57 55 55 56 61 61 57 59 68 70 69 70 70 70 71 73 74 74 75 74 74 75 77
32 34 35 36 37 38 38 39 40 41 42 43 43 41 37 33 32 32 32 32 31 30 30 29 29 29 29 30 31 31 31 30 30 30 31 32 32 33 34 35 36 37 38 38 39 40 41 42 43 45 44 43 44 45 46 48 50 52 52 53 53 54 56 58 59 61 60 59 57 62 66 62 60 67 70 69 71 72 72 72 74 75 77 77 76 75 77 79
33 35 36 36 37 38 38 39 40 41 42 43 43 41 37 33 32 33 33 32 32 31 30 30 30 30 30 31 32 32 32 31 30 29 30 31 32 33 34 35 37 38 39 39 39 40 42 43 44 47 47 47 47 48 49 50 51 53 54 55 56 57 58 60 61 63 64 63 60 61 68 68 66 69 71 71 73 74 73 74 75 77 79 79 78 77 78 80
34 35 35 36 37 38 38 39 40 42 43 44 44 42 38 34 33 33 33 33 32 32 31 30 30 30 31 32 32 33 33 32 32 31 30 31 32 33 34 36 37 38 39 40 39 39 42 43 45 48 50 50 49 51 52 52 54 55 56 56 57 59 60 62 63 66 67 67 65 64 67 70 72 74 74 74 76 77 76 76 77 79 81 80 79 79 80 81
35 35 35 36 37 38 38 39 41 42 43 45 44 42 39 35 34 34 34 34 33 32 32 31 31 31 31 32 33 33 34 33 33 33 32 32 32 33 34 36 38 39 39 41 41 40 41 43 44 47 50 51 51 52 54 55 55 57 58 59 59 60 62 64 65 68 69 69 68 68 69 70 74 77 77 76 79 80 79 79 80 82 83 81 79 80 81 82
35 35 36 36 37 38 39 39 41 42 44 45 45 44 41 37 35 34 35 35 34 33 32 32 31 31 32 33 33 34 34 34 34 34 34 34 34 34 35 36 38 39 40 41 43 42 42 43 44 45 49 51 52 53 56 56 56 56 57 60 61 61 63 65 67 70 71 70 70 72 72 72 74 78 79 79 80 81 81 81 82 84 85 82 81 82 83 84
35 35 36 37 38 39 39 40 41 42 43 45 45 45 43 39 36 35 35 35 35 35 34 33 32 32 32 33 33 34 35 35 35 35 36 36 37 37 37 38 38 40 40 41 43 44 43 44 44 45 47 50 51 52 55 57 57 56 56 59 61 62 63 65 69 72 73 73 72 74 75 75 75 77 79 80 82 83 83 83 84 86 86 84 83 84 85 86
35 35 36 37 38 39 39 40 41 42 43 45 46 45 45 42 39 36 36 36 36 36 35 34 34 34 34 34 34 35 36 36 37 37 37 37 39 39 39 40 40 40 41 41 42 44 45 44 45 46 47 49 49 50 53 57 58 57 56 59 61 62 63 65 68 73 75 74 74 75 76 77 78 79 79 81 83 85 85 85 87 88 87 85 86 87 87 88
Wind_Direction
229 232 234 236 238 239 240 240 241 241 238 236 232 230 229 227 227 226 230 242 249 254 255 259 268 270 264 258 253 250 250 252 253 255 256 257 258 259 260 260 261 262 262 261 261 261 261 261 261 262 262 263 263 264 264 264 265 266 266 266 266 265 265 264 264 263 262 262 262 262 263 263 263 263 264 264 264 264 263 263 262 262 262 262 262 262 262 263
231 233 236 237 238 238 240 241 240 241 240 237 233 231 231 229 227 227 229 235 241 243 244 248 257 263 262 260 257 253 250 252 256 258 259 260 261 262 263 263 262 262 263 263 263 262 262 263 264 264 265 265 265 266 266 265 265 264 264 265 265 265 266 266 265 265 264 264 263 263 263 263 263 263 263 263 263 263 263 263 262 262 262 262 261 261 261 262
233 235 238 239 239 239 240 240 240 240 240 238 232 229 232 233 230 230 232 233 235 237 237 240 245 250 257 260 260 260 258 259 261 261 261 261 263 266 268 270 270 269 268 268 267 265 265 265 265 265 266 267 267 268 269 269 268 268 267 266 266 267 267 267 267 267 266 266 265 265 265 264 264 264 263 263 263 263 263 263 263 263 263 262 262 262 261 261
237 238 239 240 240 241 240 240 240 239 239 236 231 226 230 236 235 233 235 237 241 244 241 241 246 250 255 261 266 269 271 272 270 268 267 265 264 265 267 268 270 270 269 269 269 269 269 268 268 267 267 267 267 268 269 269 269 269 269 268 267 267 267 267 267 267 267 266 266 265 265 265 265 265 264 264 264 264 264 264 264 264 263 263 263 262 262 262
240 241 242 242 242 242 241 240 239 239 239 235 230 226 227 235 240 239 239 240 242 245 243 242 246 251 254 260 266 269 272 274 275 274 272 269 268 267 266 266 266 267 267 266 266 267 268 269 270 270 270 269 270 270 270 271 271 270 270 269 268 267 267 266 266 265 265 265 265 265 265 265 264 264 264 264 265 265 264 264 264 263 263 263 263 262 262 262
241 243 244 245 245 244 243 241 239 238 238 236 231 226 226 232 239 244 245 244 243 243 242 242 244 247 251 255 260 264 265 266 269 272 271 270 269 269 269 268 268 268 268 267 267 266 267 267 268 268 269 269 269 269 270 270 270 270 269 269 269 269 269 269 268 267 266 266 266 265 265 265 265 265 265 265 264 264 264 264 263 263 263 262 262 262 262 262
242 244 246 247 248 248 246 244 242 239 238 236 232 227 226 228 233 239 244 248 249 249 249 248 249 250 252 255 258 261 264 264 265 267 269 270 269 270 269 269 269 269 269 269 268 268 269 269 270 270 271 271 270 270 271 271 270 270 269 270 270 271 271 271 271 270 269 268 268 267 266 266 266 266 265 265 265 264 264 264 264 263 263 263 263 263 263 263
241 243 246 248 249 249 249 248 246 243 240 237 234 231 228 229 231 232 237 243 247 252 254 255 257 258 259 261 262 264 265 267 268 269 270 271 272 273 273 273 274 273 272 273 272 272 273 273 273 273 273 273 273 273 274 275 274 274 273 273 273 274 274 274 273 273 273 272 271 271 270 270 269 269 268 267 266 265 265 265 264 264 264 264 264 264 264 264
240 243 246 247 249 249 249 249 249 248 245 241 238 235 232 231 233 234 236 238 240 245 249 252 255 257 260 262 263 265 266 268 269 271 272 273 274 274 275 276 277 277 278 278 278 277 278 278 277 277 276 275 275 276 276 276 276 276 277 277 277 278 277 277 276 276 276 276 276 276 276 275 275 274 273 272 271 269 268 267 266 266 265 265 265 265 265 264
239 242 244 246 248 249 251 250 251 251 249 246 243 240 237 235 235 237 239 238 240 244 244 248 249 250 255 257 259 261 262 264 265 267 269 271 272 272 273 274 274 275 276 277 278 277 277 278 278 278 278 278 278 277 277 277 277 278 278 278 279 279 279 279 279 279 279 278 278 278 278 278 277 277 277 276 276 275 274 273 272 271 270 269 268 267 267 266
238 241 243 245 248 250 252 253 254 254 253 252 249 246 243 240 239 240 242 242 244 245 244 248 249 250 253 254 256 257 258 260 261 263 266 268 270 271 271 272 272 272 273 274 274 275 275 275 276 276 276 276 276 276 276 276 276 277 277 277 278 278 278 277 277 277 277 277 277 277 277 277 277 276 276 276 276 276 276 275 275 274 274 273 272 272 271 270
236 240 242 245 249 252 255 257 258 259 258 257 255 254 250 247 245 244 244 245 247 247 247 249 250 252 254 254 256 257 258 260 261 263 265 266 268 269 270 271 271 272 273 273 273 274 274 274 275 275 275 274 274 275 275 276 276 276 276 276 276 276 276 276 276 275 275 275 275 275 275 275 275 275 275 275 275 274 274 274 274 274 273 273 273 273 273 273
234 238 241 245 250 255 260 262 264 264 264 263 260 259 257 255 253 251 250 249 250 251 252 253 253 254 256 256 258 259 260 262 263 264 266 267 268 269 270 270 270 271 272 273 273 273 274 274 274 275 275 274 274 274 275 275 276 276 276 276 277 277 277 276 276 276 276 276 276 276 276 276 275 275 275 275 275 275 274 274 274 274 274 274 273 273 273 273
231 235 239 244 250 256 262 267 269 269 268 267 266 264 262 260 259 258 257 256 255 255 256 256 257 258 259 259 260 261 262 263 265 266 267 268 269 270 270 271 271 272 272 272 273 273 273 274 274 275 275 275 275 275 275 275 276 276 276 277 277 278 277 277 277 277 276 276 276 276 276 276 276 276 276 276 275 275 275 275 275 275 274 274 274 273 273 273
228 232 237 243 249 256 263 267 269 270 270 270 270 269 268 267 266 265 264 263 262 262 261 261 261 262 262 263 263 264 265 266 267 268 269 269 270 271 272 272 273 273 273 274 274 274 274 275 275 276 276 276 276 276 276 276 276 277 277 278 278 278 278 278 278 278 278 278 278 278 278 278 277 277 277 277 276 276 276 276 275 275 275 274 274 274 274 273
227 232 238 245 254 262 268 272 273 273 274 274 275 275 275 274 273 272 271 270 270 269 268 268 268 268 268 268 267 268 268 269 269 270 271 271 272 273 273 274 274 274 275 275 275 276 276 276 277 277 277 277 278 278 278 278 278 279 279 279 280 280 280 280 280 280 279 279 279 279 279 279 278 278 278 278 278 277 277 277 276 276 276 275 275 275 274 274
228 234 242 253 266 274 278 279 280 280 280 281 281 281 281 281 279 278 277 276 275 275 274 274 273 273 272 272 272 272 272 272 272 273 273 274 274 274 275 275 275 276 276 276 277 277 277 277 278 278 278 279 279 279 279 280 280 280 280 280 280 281 280 280 280 280 280 279 279 279 279 279 278 278 278 278 278 278 277 277 277 277 276 276 276 275 275 275
230 238 249 265 277 283 284 285 285 286 287 288 288 287 286 284 282 281 280 279 278 278 278 277 277 276 276 276 275 275 275 275 275 275 275 276 276 276 276 277 277 277 277 277 277 278 278 278 278 279 279 280 280 281 281 281 281 281 281 281 281 281 281 281 281 281 280 280 280 280 280 280 279 279 279 279 279 278 278 278 277 277 277 276 276 276 276 276
234 244 258 273 281 285 287 288 289 291 292 291 290 288 286 284 283 283 282 282 282 281 280 280 279 279 278 278 278 278 277 277 277 277 277 277 277 277 278 278 278 278 278 279 279 279 280 280 281 281 281 281 282 282 282 283 282 283 283 283 283 283 283 283 283 283 283 282 282 282 281 281 280 280 280 279 279 279 278 278 277 277 277 277 276 276 276 276
241 252 265 274 280 284 286 289 291 292 292 291 290 288 287 287 287 287 287 286 285 284 284 284 283 283 283 282 282 282 281 281 281 280 280 280 279 279 280 280 280 280 281 281 282 282 283 283 284 284 284 284 284 284 284 285 285 285 285 285 285 285 285 285 284 284 284 283 283 283 282 282 281 281 280 280 280 279 278 278 277 277 277 277 277 277 277 276
248 258 267 273 278 283 286 289 291 291 291 291 291 292 292 292 292 291 290 290 289 289 288 288 288 288 287 287 286 286 285 284 284 283 283 282 282 282 282 282 282 283 283 284 285 286 286 287 287 287 288 287 287 287 287 287 287 287 286 286 286 286 285 285 284 284 284 284 283 283 283 282 282 282 281 281 280 280 279 279 279 279 278 278 278 278 277 277
252 261 268 274 279 284 287 290 291 292 294 295 295 295 295 295 295 295 295 294 293 293 292 292 291 291 290 290 289 289 288 287 287 286 285 285 285 285 285 285 285 286 287 288 288 289 289 289 290 290 290 290 290 289 289 288 288 287 287 287 287 286 286 286 286 286 285 285 285 284 284 283 283 283 282 282 281 280 280 280 280 280 279 279 279 279 279 279
255 264 270 277 282 287 290 293 295 296 297 297 297 297 297 298 299 298 298 297 296 296 296 295 295 295 294 294 293 292 291 291 290 289 289 289 289 289 289 289 290 290 290 291 291 292 292 292 292 293 292 292 292 291 291 290 290 290 289 289 289 289 289 288 288 287 287 286 286 285 285 285 285 285 284 284 283 283 283 283 282 282 282 281 281 281 281 281
258 267 275 282 287 291 295 297 299 300 299 298 298 299 300 301 301 300 299 299 299 299 298 298 298 298 298 298 297 296 295 294 294 293 294 294 294 294 294 294 294 294 294 294 295 294 294 294 294 294 294 294 294 294 294 293 293 293 293 292 292 291 291 290 290 289 289 289 289 289 289 288 288 288 287 286 286 286 285 285 284 284 283 283 283 282 282 282
261 272 281 288 293 296 299 300 300 299 299 299 300 302 303 303 302 302 302 302 302 302 302 302 302 302 301 301 300 299 298 298 298 298 298 298 298 298 298 298 298 298 298 297 297 296 295 295 296 296 296 296 296 296 296 296 296 295 294 294 294 293 293 292 292 292 292 292 291 291 291 290 289 289 288 287 287 286 285 285 284 284 283 283 282 282 282 282
267 278 287 292 296 299 300 300 299 299 299 300 302 304 304 304 304 304 305 305 305 305 305 305 305 304 303 302 301 301 301 301 301 301 301 301 302 302 302 301 300 299 298 297 297 298 298 299 299 299 299 299 299 299 298 297 297 296 295 295 295 295 295 294 294 294 293 292 292 291 291 290 289 289 288 287 287 286 285 284 284 284 283 283 283 282 282 282
276 284 290 295 298 299 300 299 299 299 301 302 304 305 305 305 305 306 307 308 308 307 307 307 306 305 304 303 303 304 304 304 304 304 304 305 304 303 302 300 299 298 298 299 300 301 301 302 303 303 302 302 301 300 298 298 297 297 297 297 296 296 295 295 294 294 293 293 292 292 291 291 290 289 289 289 289 288 287 286 286 285 285 285 285 284 284 283
282 289 293 297 298 298 298 299 299 301 303 304 305 305 306 307 308 309 309 309 309 308 308 308 306 305 305 305 306 306 306 306 307 306 306 305 303 302 301 300 300 301 302 302 303 303 304 304 304 303 303 302 301 300 300 299 299 298 298 297 297 296 296 295 295 294 294 294 293 293 293 293 293 292 292 292 292 292 291 290 289 288 288 287 287 287 286 286
288 294 297 298 297 297 298 300 302 303 304 305 306 307 308 309 310 311 311 310 310 309 309 308 307 306 307 308 308 308 308 308 308 307 306 304 303 303 303 303 303 303 304 304 304 305 304 304 303 303 303 302 302 301 301 300 299 298 298 297 297 297 297 297 297 297 297 296 296 296 296 297 297 296 297 298 297 297 296 295 294 293 292 291 290 289 289 289
294 298 298 296 296 298 300 303 305 305 306 307 308 310 311 312 312 312 311 311 311 311 311 310 309 310 311 311 310 310 309 309 308 307 306 305 305 305 304 305 305 305 306 305 305 304 304 304 304 304 304 303 303 302 301 300 299 299 299 299 299 299 300 300 300 300 300 299 299 300 301 302 301 301 302 301 300 301 301 300 299 297 296 294 293 292 291 290
299 299 296 295 298 301 304 307 307 307 308 310 311 312 313 313 313 313 313 313 314 314 313 312 313 313 313 312 312 311 311 311 309 308 307 307 307 307 307 307 307 307 306 306 306 306 306 306 306 306 305 304 303 302 302 302 302 302 302 302 303 303 303 303 303 304 303 303 304 304 305 304 302 302 302 301 302 303 303 303 301 299 298 297 295 294 293 292
298 295 294 297 301 305 308 309 309 310 311 313 314 314 314 314 314 314 315 316 316 316 315 315 315 314 314 313 313 312 312 311 310 309 309 309 309 310 309 309 308 307 306 307 307 308 308 308 307 306 305 305 305 305 305 305 306 306 306 306 305 306 306 306 307 307 307 307 307 305 304 303 302 302 303 305 306 305 305 304 303 302 302 300 298 296 296 296
294 293 296 301 305 308 309 310 311 312 314 315 315 315 315 316 316 317 318 319 318 317 316 316 315 314 314 313 312 311 311 310 311 311 312 312 312 311 311 310 308 307 308 309 310 309 309 309 308 308 308 309 310 310 310 310 310 309 309 309 309 309 309 309 309 309 309 309 307 305 304 303 303 305 308 311 310 307 306 306 305 305 304 302 300 299 299 298
292 296 301 305 307 309 310 311 313 315 316 316 316 316 317 318 319 320 320 320 319 317 316 315 315 315 314 313 312 311 311 312 312 313 313 313 312 311 310 310 309 310 311 312 312 311 312 312 313 314 315 315 315 315 315 315 314 314 313 313 313 313 313 313 313 314 314 314 311 309 308 308 310 312 314 314 311 309 310 310 309 308 307 305 304 304 303 302
296 301 305 307 309 311 312 314 316 317 317 317 317 318 319 320 321 321 321 320 318 316 316 316 315 314 313 311 311 311 312 313 314 315 314 314 313 312 312 312 312 313 314 314 315 316 317 318 319 320 320 321 321 322 322 322 322 321 321 321 321 321 322 322 323 323 323 322 318 316 315 316 319 321 320 320 318 318 318 317 316 316 315 314 313 312 311 310
301 305 308 310 312 313 315 316 317 317 317 318 319 320 322 322 322 322 321 319 317 317 317 316 315 313 312 311 310 311 313 314 315 315 315 315 314 314 314 314 315 315 316 318 319 320 322 323 323 325 327 328 329 330 330 331 331 331 331 332 332 333 333 333 333 332 333 332 327 324 323 325 328 329 328 329 329 327 326 325 324 323 322 322 321 321 320 318
306 309 311 313 315 316 318 319 318 318 319 320 322 322 323 323 323 322 321 318 317 317 317 315 314 312 311 311 312 313 314 315 316 316 316 316 315 316 316 316 317 318 320 322 323 325 327 329 331 333 334 335 337 337 338 338 339 339 340 340 340 341 341 341 341 339 339 340 337 331 328 329 332 332 331 331 330 329 328 328 328 327 327 327 327 327 326 323
309 312 314 316 317 319 320 320 319 320 322 323 323 324 324 324 324 322 320 319 318 318 317 315 313 312 312 312 313 315 315 316 317 317 317 317 316 317 317 319 321 323 325 327 329 332 334 336 338 339 340 340 342 343 343 344 344 345 344 343 343 344 345 345 345 345 343 344 346 339 332 333 336 335 335 334 330 329 327 326 327 327 327 328 330 331 329 327
312 315 317 318 320 321 321 321 322 322 323 324 325 325 325 325 324 322 320 319 318 317 317 315 313 313 312 312 314 315 316 317 317 317 317 317 317 319 320 323 325 328 330 333 335 337 339 340 341 342 343 344 345 345 346 346 346 346 346 345 345 346 347 348 348 349 348 347 352 348 338 336 340 340 341 341 338 336 333 330 328 327 327 329 331 332 331 329
315 317 319 321 322 322 322 323 323 324 325 326 326 326 325 325 324 322 320 319 319 318 316 315 314 313 312 312 314 315 316 317 317 317 318 318 320 323 325 328 330 332 336 338 339 339 340 341 342 343 345 346 346 347 347 348 348 347 347 347 347 348 349 351 349 350 351 350 353 355 344 337 341 344 344 345 343 341 340 338 336 334 332 333 333 334 333 331
317 320 322 323 323 323 324 324 325 326 327 327 326 326 326 326 324 321 320 320 319 318 317 315 314 312 311 312 314 315 316 317 317 318 319 322 325 327 329 332 334 337 338 339 339 339 339 341 342 344 345 346 347 347 348 349 349 349 349 349 350 350 350 352 352 351 353 351 351 357 351 338 337 342 344 345 344 342 341 341 339 337 336 336 336 336 334 332
320 323 324 324 324 325 325 326 326 327 326 327 327 328 328 326 324 322 322 321 320 319 318 316 313 312 311 312 314 315 316 316 317 319 322 325 328 330 332 334 337 338 338 338 338 339 339 341 343 344 345 346 347 347 348 348 350 351 351 350 351 351 350 352 353 354 354 352 349 355 355 340 335 340 344 345 343 341 340 340 339 337 337 337 337 336 334 333
323 325 325 325 326 326 326 326 326 327 327 329 330 330 329 327 324 324 323 322 321 320 318 315 312 311 311 312 314 315 315 316 318 321 324 326 329 331 333 335 337 337 336 336 337 338 340 341 342 344 345 346 346 347 348 348 349 351 352 352 351 351 350 350 351 353 355 353 348 350 356 345 335 339 344 344 343 340 338 338 337 336 336 336 337 336 334 333
325 325 325 326 327 326 326 327 327 328 330 331 332 332 330 328 325 325 325 324 322 320 318 315 313 312 311 312 313 315 315 316 318 320 324 326 328 330 332 334 335 335 334 334 335 337 339 340 341 343 345 346 345 346 347 347 348 349 350 351 350 350 349 348 348 351 355 356 348 345 354 350 336 339 345 343 342 341 338 337 336 335 335 335 336 336 333 332
325 325 325 326 326 326 327 328 329 330 332 333 334 334 332 328 327 326 326 324 322 321 319 316 313 312 311 312 313 314 314 315 317 320 322 325 327 329 331 332 332 332 333 334 334 336 338 339 339 340 343 345 343 343 345 344 345 347 348 349 349 348 347 346 346 347 353 359 350 342 351 353 339 338 344 342 340 341 338 336 335 334 335 336 336 335 333 332
324 325 326 327 327 328 329 329 330 332 334 336 337 336 333 329 328 327 326 325 323 322 320 316 314 313 312 312 313 313 313 313 315 318 321 323 325 327 328 329 329 330 331 333 334 334 336 338 337 337 340 343 342 341 343 343 343 345 346 347 347 347 346 343 343 344 348 357 354 343 346 352 343 341 344 341 339 340 338 336 334 334 334 336 336 335 332 332
325 326 327 327 329 329 330 331 332 335 336 338 339 337 334 330 328 327 327 326 324 322 320 317 315 313 311 312 312 312 312 312 313 315 318 320 322 324 326 327 327 329 329 332 334 333 334 336 336 335 337 341 341 339 341 342 341 343 344 345 344 345 345 342 340 341 345 352 354 346 344 346 344 344 345 341 339 340 339 336 335 334 335 337 336 334 332 332
325 326 327 329 330 330 331 332 334 336 338 340 341 339 335 330 328 328 327 327 325 323 321 318 315 313 311 311 311 311 311 311 311 313 315 317 319 320 322 324 325 326 327 328 331 332 332 333 334 333 333 337 339 337 338 340 340 341 342 342 343 343 343 341 338 338 343 348 350 346 344 343 342 345 345 341 340 341 339 337 335 334 336 338 336 333 332 332
326 327 328 330 331 331 332 334 335 337 339 341 342 340 336 331 328 328 328 327 325 323 321 319 316 314 312 311 311 310 310 310 310 311 312 314 315 316 319 320 322 323 325 326 327 330 330 330 332 332 331 334 336 335 335 336 338 340 339 339 342 342 340 339 337 336 341 346 346 344 344 343 340 343 344 341 340 340 338 337 335 335 337 338 335 333 332 332
325 327 329 331 332 332 333 334 336 338 340 341 342 341 339 333 329 328 328 327 326 324 322 319 317 314 312 310 310 309 309 309 309 309 310 311 312 313 315 317 319 320 322 323 324 326 328 328 330 331 329 331 334 333 331 332 334 338 338 336 338 341 339 337 334 333 338 344 344 342 343 342 340 341 342 341 339 339 338 336 335 336 338 337 335 333 333 332
326 328 330 331 332 333 334 335 337 338 339 341 342 342 341 336 330 327 327 327 326 324 322 320 317 314 312 310 309 309 309 308 307 307 307 308 310 311 312 314 316 318 320 321 321 322 325 326 327 328 328 328 331 331 328 328 330 334 336 333 335 338 338 336 332 330 335 342 342 340 340 340 339 339 340 340 339 338 337 335 334 336 338 337 334 333 333 333
327 329 330 331 333 334 334 334 336 337 339 341 342 342 342 339 333 327 325 326 325 324 323 320 318 315 312 310 309 309 308 307 307 306 306 306 307 308 310 311 313 315 317 318 319 319 322 324 325 325 325 326 328 328 326 324 326 331 334 331 332 336 337 336 332 328 332 339 339 337 338 338 338 338 338 339 338 338 337 334 334 337 338 336 334 334 333 333
Height
10681 10682 10683 10684 10685 10685 10686 10687 10688 10688 10689 10690 10692 10693 10693 10694 10695 10696 10697 10697 10697 10698 10698 10699 10699 10699 10698 10698 10699 10699 10699 10699 10700 10700 10700 10701 10701 10701 10701 10701 10700 10700 10699 10699 10699 10699 10699 10699 10699 10698 10698 10698 10697 10697 10697 10697 10697 10697 10696 10696 10697 10697 10696 10694 10694 10693 10691 10690 10690 10689 10688 10688 10688 10687 10686 10686 10686 10685 10685 10685 10685 10684 10684 10683 10682 10681 10680 10679
10679 10680 10681 10682 10683 10684 10684 10685 10686 10686 10687 10688 10689 10690 10691 10692 10692 10693 10694 10695 10695 10696 10696 10696 10697 10696 10695 10695 10696 10696 10697 10697 10697 10697 10697 10697 10697 10697 10697 10696 10696 10696 10695 10695 10695 10694 10694 10694 10694 10693 10693 10692 10692 10692 10692 10693 10692 10691 10691 10691 10691 10691 10690 10689 10688 10687 10686 10685 10684 10683 10682 10682 10682 10681 10680 10680 10679 10679 10679 10678 10678 10677 10677 10676 10676 10675 10674 10672
10677 10678 10679 10680 10681 10682 10683 10684 10684 10685 10685 10686 10687 10688 10689 10690 10691 10691 10692 10692 10692 10693 10693 10694 10694 10694 10692 10691 10692 10693 10694 10694 10695 10695 10694 10694 10694 10693 10693 10692 10692 10691 10691 10690 10690 10690 10690 10690 10689 10688 10688 10687 10687 10687 10687 10687 10686 10685 10685 10685 10685 10684 10684 10683 10681 10680 10679 10678 10677 10676 10676 10675 10675 10673 10673 10673 10672 10672 10671 10671 10671 10670 10670 10669 10668 10667 10666 10665
10675 10676 10677 10678 10679 10681 10682 10682 10682 10683 10683 10684 10685 10686 10687 10687 10688 10689 10689 10690 10690 10690 10691 10692 10691 10691 10690 10689 10689 10689 10689 10689 10690 10691 10691 10691 10690 10690 10689 10688 10688 10687 10686 10686 10685 10685 10685 10685 10684 10683 10683 10682 10682 10682 10682 10681 10680 10679 10679 10678 10677 10677 10676 10675 10674 10673 10672 10671 10670 10670 10669 10668 10667 10666 10666 10665 10665 10664 10664 10664 10663 10662 10662 10661 10660 10659 10658 10657
10673 10674 10675 10676 10678 10679 10680 10680 10681 10681 10681 10682 10683 10684 10685 10685 10685 10687 10687 10688 10688 10688 10689 10690 10689 10689 10688 10688 10687 10687 10687 10685 10684 10685 10686 10686 10686 10685 10684 10684 10683 10682 10682 10681 10680 10680 10680 10680 10679 10678 10677 10677 10676 10676 10676 10674 10673 10673 10672 10671 10669 10669 10668 10668 10667 10666 10665 10664 10663 10662 10662 10661 10659 10659 10658 10658 10657 10657 10656 10655 10654 10654 10653 10652 10651 10650 10649 10648
10671 10672 10673 10675 10676 10677 10678 10678 10679 10679 10679 10680 10681 10682 10683 10683 10683 10684 10685 10685 10685 10686 10686 10687 10686 10686 10685 10685 10685 10684 10685 10684 10681 10681 10681 10681 10681 10680 10679 10679 10678 10677 10676 10676 10675 10674 10675 10675 10674 10673 10672 10671 10670 10670 10669 10668 10666 10666 10664 10663 10662 10662 10661 10660 10659 10658 10657 10656 10655 10654 10654 10653 10651 10651 10651 10650 10649 10648 10646 10645 10645 10644 10643 10643 10642 10641 10640 10639
10670 10671 10672 10673 10674 10675 10676 10676 10676 10677 10677 10678 10679 10680 10681 10681 10682 10682 10682 10682 10683 10683 10683 10683 10683 10683 10682 10682 10681 10680 10681 10680 10679 10677 10677 10676 10676 10675 10674 10673 10672 10672 10671 10670 10669 10669 10668 10668 10668 10667 10666 10665 10663 10662 10662 10661 10659 10658 10657 10656 10655 10655 10654 10652 10651 10649 10648 10647 10646 10646 10645 10645 10644 10644 10643 10642 10640 10638 10637 10636 10635 10634 10633 10633 10632 10631 10630 10629
10669 10670 10671 10672 10673 10673 10674 10674 10674 10675 10675 10676 10677 10677 10678 10679 10679 10680 10680 10680 10680 10680 10680 10679 10679 10679 10679 10678 10677 10677 10676 10675 10674 10674 10672 10671 10670 10669 10668 10667 10666 10665 10665 10664 10663 10663 10662 10662 10662 10661 10660 10658 10656 10655 10655 10654 10652 10650 10649 10648 10647 10647 10646 10644 10642 10640 10639 10638 10637 10637 10637 10637 10636 10635 10634 10632 10630 10629 10627 10626 10625 10624 10624 10623 10622 10621 10620 10618
10668 10669 10671 10671 10671 10672 10672 10672 10672 10673 10673 10674 10675 10675 10676 10677 10677 10677 10677 10677 10677 10677 10677 10676 10676 10675 10675 10675 10674 10673 10672 10671 10670 10669 10668 10666 10665 10663 10662 10661 10659 10658 10658 10657 10657 10656 10656 10656 10655 10654 10654 10652 10650 10648 10648 10647 10646 10643 10642 10641 10640 10639 10637 10635 10633 10631 10630 10629 10629 10628 10628 10627 10627 10625 10624 10622 10620 10619 10618 10617 10616 10615 10614 10613 10612 10610 10609 10607
10668 10669 10670 10670 10670 10670 10670 10670 10670 10671 10671 10672 10672 10673 10674 10675 10675 10674 10674 10674 10674 10674 10674 10673 10673 10672 10672 10671 10670 10670 10668 10667 10666 10665 10664 10662 10661 10659 10657 10656 10654 10653 10652 10651 10650 10650 10649 10649 10648 10647 10646 10645 10642 10641 10640 10639 10638 10636 10635 10633 10632 10631 10629 10627 10625 10623 10621 10620 10620 10619 10618 10617 10616 10615 10613 10611 10609 10608 10607 10606 10605 10604 10603 10602 10600 10599 10597 10595
10667 10668 10668 10669 10669 10669 10669 10669 10669 10669 10669 10670 10670 10670 10671 10672 10672 10671 10671 10671 10671 10671 10671 10670 10669 10668 10667 10667 10667 10666 10664 10663 10662 10661 10660 10658 10657 10655 10654 10652 10650 10649 10647 10646 10645 10644 10644 10643 10642 10641 10640 10638 10636 10634 10632 10631 10630 10629 10627 10626 10625 10623 10620 10619 10617 10615 10613 10612 10611 10610 10609 10608 10606 10605 10603 10601 10600 10598 10597 10596 10595 10593 10591 10589 10588 10586 10584 10583
10666 10667 10667 10667 10668 10668 10668 10668 10668 10667 10667 10668 10668 10668 10668 10669 10668 10668 10668 10668 10667 10667 10667 10666 10666 10664 10664 10663 10662 10661 10659 10658 10657 10656 10655 10653 10652 10650 10648 10647 10645 10643 10642 10641 10639 10638 10638 10637 10636 10634 10633 10631 10630 10628 10625 10623 10623 10622 10619 10618 10616 10614 10612 10611 10609 10607 10605 10603 10602 10600 10599 10598 10596 10594 10592 10591 10590 10589 10587 10585 10584 10581 10579 10577 10575 10573 10572 10570
10665 10666 10666 10666 10666 10666 10666 10666 10666 10666 10666 10666 10666 10666 10665 10665 10665 10665 10665 10665 10664 10664 10663 10662 10662 10661 10660 10659 10658 10657 10655 10654 10653 10652 10651 10649 10646 10644 10643 10641 10639 10637 10636 10634 10633 10632 10631 10630 10629 10627 10625 10624 10622 10621 10619 10616 10614 10612 10610 10608 10607 10605 10603 10601 10599 10597 10594 10593 10591 10590 10588 10587 10584 10582 10581 10579 10578 10576 10574 10572 10570 10568 10566 10564 10562 10560 10558 10556
10664 10664 10665 10665 10665 10665 10665 10665 10665 10664 10664 10664 10663 10663 10663 10663 10662 10662 10661 10661 10661 10660 10659 10659 10658 10657 10656 10655 10654 10652 10651 10650 10648 10647 10645 10643 10641 10639 10636 10634 10633 10631 10629 10628 10626 10625 10624 10623 10621 10619 10617 10616 10614 10613 10611 10609 10606 10603 10601 10599 10597 10595 10593 10590 10588 10586 10583 10582 10580 10578 10577 10575 10573 10570 10568 10567 10565 10563 10561 10559 10557 10555 10553 10550 10548 10546 10544 10542
10663 10663 10664 10664 10664 10664 10664 10664 10663 10663 10662 10662 10661 10661 10660 10660 10659 10659 10658 10658 10657 10656 10656 10655 10654 10653 10652 10650 10649 10648 10646 10645 10643 10641 10639 10637 10635 10633 10630 10628 10626 10624 10622 10620 10619 10617 10616 10615 10613 10611 10609 10608 10606 10604 10602 10600 10598 10594 10592 10590 10587 10584 10582 10580 10578 10575 10572 10570 10568 10567 10565 10564 10561 10558 10556 10554 10552 10550 10548 10546 10544 10541 10539 10536 10534 10532 10530 10528
10662 10662 10662 10663 10663 10663 10663 10662 10662 10661 10661 10660 10659 10659 10658 10657 10657 10656 10655 10654 10654 10653 10652 10651 10649 10648 10647 10646 10644 10642 10641 10639 10637 10635 10633 10631 10629 10626 10624 10621 10619 10617 10615 10613 10611 10609 10608 10607 10605 10604 10601 10599 10597 10595 10593 10591 10588 10585 10583 10581 10578 10575 10572 10570 10568 10565 10562 10560 10558 10556 10555 10553 10550 10547 10544 10542 10540 10538 10536 10533 10531 10528 10526 10523 10521 10519 10516 10514
10660 10661 10661 10661 10661 10661 10661 10660 10660 10659 10659 10658 10657 10657 10656 10655 10654 10653 10652 10651 10650 10649 10648 10647 10645 10644 10642 10641 10639 10637 10635 10633 10631 10629 10627 10624 10622 10620 10617 10615 10612 10610 10608 10606 10604 10602 10601 10599 10598 10596 10594 10592 10589 10587 10585 10582 10579 10576 10574 10572 10569 10566 10563 10560 10558 10556 10553 10551 10549 10547 10545 10542 10540 10537 10535 10533 10530 10528 10525 10522 10520 10517 10514 10511 10509 10507 10504 10502
10659 10659 10660 10660 10660 10660 10659 10659 10658 10658 10657 10656 10655 10654 10653 10652 10651 10650 10649 10648 10647 10646 10644 10643 10642 10640 10638 10636 10634 10632 10630 10628 10626 10624 10621 10619 10616 10614 10611 10608 10606 10604 10601 10599 10597 10595 10594 10592 10591 10590 10587 10585 10582 10579 10577 10575 10572 10568 10565 10563 10561 10558 10554 10551 10549 10547 10544 10542 10540 10538 10536 10533 10530 10528 10526 10523 10521 10518 10516 10513 10510 10507 10504 10501 10498 10496 10494 10491
10658 10658 10659 10659 10658 10658 10658 10657 10656 10656 10655 10654 10653 10652 10651 10650 10649 10648 10647 10645 10644 10643 10641 10640 10638 10636 10634 10632 10630 10628 10626 10623 10621 10619 10616 10614 10611 10608 10605 10602 10599 10597 10595 10592 10590 10588 10587 10585 10583 10582 10581 10579 10576 10572 10569 10567 10564 10561 10557 10555 10552 10550 10547 10544 10541 10538 10535 10533 10531 10529 10527 10524 10521 10519 10517 10514 10512 10509 10506 10503 10500 10497 10494 10491 10489 10486 10484 10481
10657 10658 10658 10658 10657 10657 10656 10656 10655 10654 10653 10652 10651 10650 10649 10648 10647 10646 10644 10643 10641 10640 10638 10636 10634 10632 10630 10628 10626 10623 10621 10618 10616 10614 10611 10608 10606 10603 10600 10596 10593 10591 10588 10586 10584 10582 10580 10578 10576 10574 10573 10572 10569 10566 10563 10560 10557 10554 10551 10548 10545 10543 10540 10537 10534 10531 10528 10525 10523 10521 10519 10516 10513 10511 10508 10506 10503 10500 10496 10493 10490 10487 10485 10482 10479 10476 10473 10470
10656 10657 10657 10657 10656 10656 10655 10654 10653 10652 10651 10650 10649 10648 10647 10646 10644 10643 10641 10640 10638 10636 10634 10632 10630 10628 10626 10623 10621 10618 10616 10613 10610 10608 10605 10602 10599 10597 10594 10591 10588 10585 10582 10580 10578 10576 10574 10572 10569 10567 10565 10564 10562 10560 10557 10554 10551 10548 10545 10542 10539 10537 10534 10531 10527 10524 10521 10518 10516 10513 10511 10507 10504 10502 10499 10496 10493 10489 10486 10483 10480 10478 10475 10472 10468 10465 10462 10459
10656 10656 10656 10656 10655 10654 10653 10652 10651 10650 10649 10648 10647 10646 10645 10643 10642 10640 10638 10637 10634 10632 10630 10628 10626 10623 10621 10618 10616 10613 10610 10607 10604 10602 10599 10596 10594 10591 10588 10586 10583 10580 10578 10576 10573 10571 10568 10566 10564 10561 10559 10557 10555 10553 10551 10548 10545 10542 10540 10537 10534 10531 10528 10524 10521 10517 10514 10511 10508 10505 10502 10499 10496 10493 10490 10487 10483 10479 10477 10474 10470 10467 10464 10461 10457 10454 10451 10448
10655 10655 10654 10654 10653 10652 10652 10650 10650 10649 10647 10646 10645 10644 10642 10641 10639 10637 10635 10633 10631 10628 10626 10623 10621 10618 10615 10613 10610 10607 10604 10601 10598 10595 10593 10591 10588 10586 10583 10581 10579 10576 10573 10571 10568 10566 10563 10561 10559 10556 10554 10552 10550 10547 10545 10542 10539 10536 10533 10530 10527 10524 10521 10517 10513 10510 10506 10503 10500 10497 10494 10490 10487 10484 10480 10476 10472 10469 10467 10463 10459 10456 10453 10449 10446 10443 10440 10436
10654 10653 10653 10652 10651 10651 10650 10649 10648 10647 10646 10645 10643 10642 10640 10638 10636 10634 10632 10629 10627 10624 10621 10619 10616 10613 10610 10607 10603 10601 10598 10595 10592 10590 10587 10585 10583 10580 10578 10576 10573 10571 10568 10566 10564 10561 10559 10557 10554 10552 10549 10547 10544 10541 10539 10536 10532 10529 10526 10523 10520 10517 10513 10509 10505 10502 10498 10494 10490 10487 10484 10480 10477 10474 10469 10465 10461 10459 10456 10451 10448 10445 10441 10438 10435 10431 10428 10424
10653 10652 10651 10651 10650 10649 10648 10647 10646 10645 10644 10642 10641 10639 10637 10635 10633 10630 10628 10625 10623 10620 10617 10614 10611 10608 10605 10601 10597 10595 10592 10589 10587 10585 10582 10580 10578 10576 10574 10571 10569 10566 10564 10562 10560 10557 10555 10553 10550 10548 10545 10542 10539 10536 10533 10529 10526 10523 10519 10515 10512 10508 10505 10501 10497 10493 10489 10485 10481 10478 10476 10470 10466 10464 10460 10454 10451 10448 10445 10441 10437 10434 10430 10426 10423 10420 10417 10413
10651 10651 10650 10649 10648 10647 10646 10646 10645 10643 10642 10640 10639 10637 10634 10632 10629 10627 10624 10621 10618 10615 10612 10609 10606 10602 10599 10596 10593 10590 10588 10585 10583 10581 10578 10576 10574 10572 10570 10567 10565 10563 10561 10558 10556 10553 10551 10548 10546 10543 10540 10537 10534 10531 10527 10524 10520 10517 10513 10509 10505 10501 10497 10493 10489 10486 10481 10477 10473 10469 10467 10461 10455 10454 10450 10444 10440 10437 10434 10430 10426 10423 10419 10415 10412 10409 10406 10403
10650 10649 10649 10648 10647 10646 10645 10644 10643 10642 10640 10638 10636 10634 10632 10629 10626 10623 10620 10617 10614 10611 10608 10605 10601 10597 10595 10592 10589 10587 10584 10582 10580 10577 10575 10573 10571 10569 10567 10565 10562 10560 10557 10555 10552 10549 10547 10544 10541 10538 10535 10532 10528 10525 10521 10518 10514 10510 10507 10502 10498 10494 10490 10486 10482 10478 10474 10469 10465 10460 10458 10453 10445 10443 10441 10434 10430 10426 10422 10420 10416 10413 10409 10406 10402 10399 10396 10393
10649 10648 10647 10646 10646 10645 10644 10643 10641 10640 10638 10636 10634 10631 10629 10626 10623 10620 10617 10613 10610 10607 10604 10600 10597 10593 10591 10588 10586 10583 10581 10579 10576 10574 10572 10570 10568 10566 10564 10561 10559 10556 10554 10551 10548 10546 10543 10540 10537 10534 10531 10527 10523 10520 10516 10512 10508 10504 10500 10495 10491 10487 10482 10478 10474 10470 10466 10460 10456 10452 10449 10445 10436 10432 10432 10426 10420 10416 10412 10409 10406 10403 10400 10397 10393 10390 10386 10384
10647 10646 10646 10645 10644 10643 10642 10641 10640 10638 10636 10634 10631 10628 10625 10622 10619 10616 10613 10610 10606 10602 10599 10596 10592 10590 10587 10585 10582 10580 10578 10576 10574 10571 10569 10567 10565 10562 10560 10558 10555 10553 10550 10548 10545 10542 10540 10537 10534 10530 10526 10522 10518 10514 10510 10506 10502 10498 10494 10489 10485 10480 10475 10471 10466 10463 10458 10452 10448 10444 10440 10437 10429 10422 10423 10418 10411 10407 10402 10398 10396 10394 10391 10387 10384 10380 10377 10374
10646 10645 10644 10644 10643 10642 10641 10639 10638 10636 10633 10631 10628 10625 10622 10619 10616 10612 10609 10606 10602 10598 10594 10591 10588 10586 10583 10581 10579 10577 10575 10573 10571 10569 10566 10564 10561 10559 10557 10554 10552 10549 10547 10544 10542 10539 10536 10533 10529 10525 10521 10517 10513 10509 10505 10500 10496 10491 10487 10482 10478 10474 10468 10464 10459 10455 10451 10445 10440 10436 10432 10429 10423 10416 10415 10411 10404 10399 10394 10390 10388 10385 10382 10379 10375 10371 10368 10365
10644 10644 10643 10642 10641 10640 10638 10637 10635 10633 10630 10628 10625 10621 10618 10615 10612 10608 10605 10601 10598 10594 10590 10587 10584 10582 10579 10577 10575 10573 10571 10569 10567 10565 10563 10561 10558 10556 10553 10551 10549 10546 10544 10541 10538 10535 10531 10528 10524 10520 10516 10512 10507 10503 10499 10494 10489 10485 10480 10476 10471 10467 10462 10456 10452 10448 10443 10439 10434 10430 10426 10422 10417 10412 10410 10406 10401 10395 10390 10385 10381 10377 10374 10372 10368 10364 10360 10357
10643 10642 10642 10641 10639 10638 10636 10634 10632 10630 10627 10624 10621 10618 10614 10611 10608 10604 10601 10597 10593 10589 10586 10584 10581 10578 10576 10574 10572 10569 10568 10566 10564 10562 10559 10557 10555 10552 10550 10548 10545 10543 10540 10537 10534 10530 10526 10522 10518 10514 10510 10506 10501 10497 10493 10488 10483 10479 10474 10469 10465 10461 10456 10450 10446 10442 10437 10434 10429 10424 10422 10418 10413 10409 10406 10403 10398 10391 10387 10382 10376 10371 10367 10364 10360 10356 10353 10350
10642 10641 10640 10639 10637 10636 10634 10632 10630 10627 10624 10620 10617 10614 10610 10607 10604 10600 10596 10592 10589 10586 10583 10581 10578 10575 10573 10571 10569 10566 10565 10563 10560 10558 10556 10553 10551 10549 10547 10545 10542 10539 10536 10533 10529 10525 10521 10517 10513 10508 10504 10500 10495 10490 10486 10481 10477 10473 10468 10463 10459 10455 10452 10446 10442 10437 10432 10427 10422 10417 10415 10412 10409 10406 10403 10399 10391 10385 10381 10377 10372 10366 10361 10357 10352 10349 10347 10342
10641 10640 10639 10638 10636 10634 10632 10630 10627 10624 10620 10617 10614 10610 10607 10603 10600 10596 10592 10588 10585 10583 10580 10578 10575 10573 10570 10568 10566 10563 10561 10559 10557 10555 10553 10550 10548 10546 10544 10541 10538 10535 10532 10528 10525 10520 10516 10512 10507 10502 10497 10493 10489 10484 10480 10475 10471 10467 10462 10458 10454 10449 10446 10442 10438 10433 10427 10420 10412 10407 10404 10404 10405 10403 10398 10392 10384 10378 10375 10370 10366 10361 10355 10350 10345 10341 10338 10333
10640 10639 10637 10636 10634 10632 10630 10627 10624 10621 10618 10614 10611 10607 10603 10599 10596 10592 10588 10585 10582 10580 10577 10575 10572 10570 10567 10565 10563 10561 10558 10556 10554 10552 10549 10547 10545 10543 10540 10538 10534 10531 10528 10524 10519 10515 10510 10506 10501 10497 10492 10488 10484 10479 10474 10470 10465 10461 10457 10452 10448 10443 10440 10436 10432 10427 10422 10415 10405 10399 10395 10395 10397 10395 10388 10385 10379 10372 10368 10363 10358 10354 10349 10343 10338 10332 10328 10323
10639 10637 10636 10634 10632 10630 10627 10624 10621 10618 10615 10611 10607 10603 10600 10596 10592 10588 10585 10582 10580 10577 10574 10572 10569 10567 10564 10562 10560 10558 10556 10553 10551 10549 10547 10544 10542 10539 10537 10534 10531 10527 10523 10519 10515 10510 10506 10501 10497 10493 10488 10483 10479 10475 10470 10465 10461 10456 10451 10447 10442 10438 10434 10431 10427 10422 10418 10411 10401 10394 10391 10389 10389 10386 10380 10377 10374 10367 10362 10357 10352 10348 10344 10338 10332 10326 10320 10315
10637 10636 10634 10632 10630 10628 10625 10622 10618 10615 10611 10607 10604 10600 10596 10593 10589 10585 10582 10579 10577 10574 10571 10569 10566 10564 10562 10559 10557 10555 10553 10551 10548 10546 10544 10541 10539 10536 10533 10530 10527 10523 10519 10515 10510 10506 10502 10497 10493 10489 10484 10480 10475 10471 10466 10461 10457 10452 10448 10444 10439 10435 10430 10427 10424 10419 10415 10410 10401 10390 10387 10386 10385 10382 10378 10374 10371 10366 10360 10354 10348 10343 10339 10334 10327 10321 10314 10309
10635 10634 10632 10630 10628 10625 10622 10619 10615 10611 10607 10604 10600 10597 10593 10589 10585 10582 10579 10576 10574 10571 10569 10566 10563 10561 10559 10556 10554 10552 10550 10547 10545 10543 10541 10538 10536 10533 10530 10527 10523 10519 10515 10511 10506 10502 10498 10493 10489 10485 10481 10476 10472 10468 10463 10459 10454 10450 10446 10442 10438 10434 10430 10425 10421 10418 10413 10410 10404 10390 10381 10381 10381 10377 10374 10370 10366 10364 10359 10353 10348 10341 10335 10331 10325 10318 10310 10303
10634 10632 10630 10628 10625 10622 10619 10615 10612 10608 10604 10601 10597 10593 10589 10585 10582 10579 10576 10573 10571 10568 10566 10563 10561 10558 10556 10554 10552 10549 10547 10544 10542 10540 10538 10535 10533 10530 10527 10523 10519 10515 10511 10507 10502 10498 10494 10490 10486 10481 10477 10473 10469 10465 10461 10457 10453 10449 10445 10441 10437 10433 10429 10424 10419 10415 10411 10407 10405 10394 10378 10373 10375 10371 10366 10363 10358 10356 10352 10348 10343 10338 10332 10327 10321 10314 10306 10298
10632 10631 10628 10626 10623 10619 10616 10612 10609 10605 10601 10597 10594 10590 10586 10582 10579 10576 10573 10571 10568 10565 10563 10560 10558 10556 10553 10551 10549 10546 10544 10542 10539 10537 10535 10532 10529 10526 10523 10519 10515 10511 10507 10503 10499 10495 10491 10487 10484 10480 10475 10471 10467 10463 10459 10455 10451 10447 10443 10439 10435 10431 10427 10423 10417 10412 10407 10403 10402 10398 10381 10367 10366 10364 10359 10355 10350 10346 10342 10338 10333 10328 10323 10318 10313 10307 10300 10293
10631 10628 10626 10623 10620 10616 10613 10609 10605 10602 10598 10595 10591 10587 10583 10579 10576 10573 10571 10568 10565 10563 10560 10557 10555 10553 10551 10548 10546 10544 10541 10539 10536 10534 10531 10528 10525 10522 10518 10515 10511 10508 10504 10500 10497 10493 10489 10485 10481 10478 10474 10469 10465 10461 10457 10453 10449 10444 10440 10436 10432 10427 10423 10421 10416 10409 10404 10398 10396 10397 10387 10370 10362 10360 10355 10350 10345 10339 10334 10329 10324 10318 10312 10308 10303 10297 10292 10285
10629 10626 10623 10620 10617 10613 10610 10606 10603 10599 10596 10592 10588 10584 10580 10576 10573 10570 10568 10565 10562 10560 10557 10555 10552 10550 10548 10545 10543 10541 10538 10536 10533 10530 10528 10525 10522 10518 10515 10511 10508 10504 10501 10497 10494 10490 10486 10482 10478 10474 10471 10467 10463 10459 10455 10451 10446 10442 10438 10433 10428 10424 10419 10415 10412 10407 10402 10396 10391 10391 10389 10375 10363 10358 10353 10348 10343 10336 10329 10324 10318 10312 10305 10300 10295 10289 10282 10276
10627 10624 10621 10618 10614 10611 10607 10604 10601 10597 10593 10589 10585 10581 10577 10573 10570 10567 10565 10562 10559 10557 10554 10552 10550 10547 10545 10542 10540 10538 10535 10533 10530 10527 10524 10521 10518 10515 10512 10508 10505 10501 10498 10494 10491 10488 10484 10480 10475 10471 10467 10463 10459 10455 10451 10447 10443 10438 10434 10430 10425 10420 10415 10410 10407 10404 10399 10393 10386 10384 10384 10375 10362 10355 10350 10344 10339 10332 10325 10319 10313 10307 10300 10293 10287 10281 10274 10268
10624 10622 10619 10615 10612 10609 10605 10602 10598 10594 10590 10586 10582 10578 10574 10570 10567 10565 10562 10559 10556 10554 10551 10549 10547 10544 10542 10540 10537 10535 10532 10529 10527 10524 10521 10518 10515 10512 10509 10506 10502 10499 10496 10492 10488 10485 10481 10477 10473 10469 10465 10460 10454 10450 10446 10441 10438 10433 10429 10425 10420 10415 10411 10406 10402 10399 10396 10391 10381 10376 10378 10371 10357 10349 10344 10338 10334 10328 10320 10313 10307 10301 10294 10287 10281 10274 10267 10260
10622 10620 10616 10613 10610 10607 10603 10599 10595 10591 10587 10583 10579 10574 10570 10567 10565 10562 10559 10556 10554 10551 10549 10546 10544 10541 10539 10537 10534 10532 10529 10527 10524 10521 10518 10515 10512 10509 10506 10503 10500 10496 10493 10489 10485 10481 10478 10474 10470 10467 10464 10460 10454 10449 10444 10438 10433 10429 10424 10420 10416 10410 10405 10401 10396 10393 10391 10389 10380 10369 10370 10369 10355 10343 10337 10331 10325 10321 10315 10306 10299 10293 10287 10281 10274 10267 10259 10251
10620 10617 10614 10611 10608 10604 10600 10596 10592 10588 10584 10580 10576 10572 10568 10565 10562 10559 10556 10554 10551 10549 10546 10544 10541 10539 10536 10534 10532 10529 10527 10524 10521 10518 10515 10512 10509 10506 10503 10500 10496 10493 10490 10487 10482 10477 10473 10470 10465 10461 10459 10456 10451 10446 10442 10436 10430 10426 10421 10416 10411 10406 10401 10394 10390 10386 10383 10383 10378 10364 10358 10361 10355 10343 10335 10328 10320 10314 10308 10300 10293 10285 10279 10274 10267 10260 10252 10243
10618 10615 10612 10608 10605 10601 10597 10594 10590 10585 10581 10577 10573 10569 10565 10562 10559 10557 10554 10551 10549 10546 10544 10541 10539 10536 10533 10531 10529 10526 10524 10521 10518 10516 10513 10510 10506 10503 10500 10497 10493 10490 10486 10483 10480 10475 10470 10466 10461 10455 10452 10450 10446 10440 10436 10432 10426 10421 10417 10411 10406 10401 10396 10389 10383 10379 10375 10374 10373 10364 10351 10348 10347 10341 10332 10324 10317 10310 10302 10294 10287 10279 10272 10266 10259 10252 10244 10236
10616 10613 10609 10606 10602 10599 10595 10591 10587 10583 10579 10575 10570 10566 10563 10560 10557 10554 10551 10549 10546 10543 10541 10538 10536 10533 10531 10528 10526 10523 10520 10517 10515 10513 10510 10507 10504 10501 10497 10494 10490 10487 10483 10479 10477 10473 10467 10463 10458 10451 10446 10444 10441 10435 10430 10426 10421 10416 10411 10407 10402 10395 10390 10384 10377 10371 10368 10365 10363 10360 10350 10340 10334 10332 10326 10316 10308 10303 10296 10288 10280 10273 10266 10260 10253 10245 10237 10229
10613 10610 10607 10604 10600 10596 10592 10588 10584 10580 10576 10572 10568 10564 10561 10557 10554 10552 10549 10546 10543 10541 10538 10535 10533 10530 10528 10525 10522 10520 10517 10514 10511 10509 10507 10504 10501 10498 10495 10491 10487 10484 10480 10476 10473 10470 10466 10461 10456 10450 10442 10438 10435 10430 10424 10420 10416 10411 10405 10400 10396 10391 10383 10378 10372 10365 10362 10360 10355 10351 10347 10338 10326 10320 10318 10311 10301 10294 10287 10280 10272 10265 10259 10254 10246 10238 10230 10222
10611 10608 10605 10601 10597 10593 10590 10586 10582 10578 10574 10570 10566 10562 10558 10555 10552 10549 10546 10543 10540 10537 10535 10532 10530 10527 10524 10522 10519 10516 10514 10511 10508 10505 10502 10500 10498 10495 10491 10488 10485 10481 10477 10473 10469 10466 10463 10458 10454 10450 10442 10435 10431 10426 10419 10415 10412 10408 10403 10395 10390 10387 10380 10372 10365 10359 10356 10354 10348 10341 10338 10334 10325 10315 10310 10303 10295 10287 10279 10272 10265 10258 10252 10246 10239 10230 10222 10214
10609 10606 10602 10599 10595 10591 10587 10583 10580 10576 10572 10568 10564 10560 10556 10552 10549 10546 10543 10540 10537 10534 10532 10529 10526 10524 10521 10518 10516 10513 10510 10507 10505 10502 10499 10496 10493 10491 10488 10485 10481 10477 10474 10471 10466 10462 10459 10456 10451 10448 10442 10434 10430 10425 10417 10410 10407 10405 10401 10395 10387 10383 10378 10369 10358 10350 10348 10347 10342 10335 10330 10326 10321 10314 10307 10298 10289 10282 10274 10265 10258 10253 10246 10238 10230 10222 10214 10205
10606 10603 10600 10596 10592 10589 10585 10581 10578 10574 10570 10566 10562 10558 10554 10550 10547 10544 10540 10537 10535 10531 10528 10526 10523 10520 10517 10515 10512 10509 10506 10503 10500 10498 10495 10492 10489 10486 10483 10480 10477 10474 10470 10467 10463 10458 10455 10452 10448 10444 10440 10434 10428 10424 10417 10408 10403 10401 10398 10391 10385 10380 10375 10368 10356 10344 10341 10341 10336 10330 10324 10319 10314 10308 10303 10295 10285 10275 10267 10257 10249 10246 10240 10231 10221 10212 10205 10196